This demonstration page uses our WeatherBlox Daily Observations layout. Learn more.

41.55636, -103.73856

Hourly Observations for March 20, 2015

Temp ( °F °C ) Dew Point ( °F °C ) Humidity (%) Winds ( mph kmh ) Pressure ( in mb ) Visibility ( mi km ) Precip ( " mm )
12:53 am 00:53 Clear 31 -0.6 20 -6.7 64 64 E 6 9 30.13 1020 10 16.0934 0 0
1:53 am 01:53 Clear 28 -2.2 19 -7.2 69 69 Calm 30.12 1020 10 16.0934 0 0
2:53 am 02:53 Clear 28 -2.2 19 -7.2 69 69 SE 5 7 30.11 1020 10 16.0934 0 0
3:53 am 03:53 Clear 25 -3.9 19 -7.2 78 78 Calm 30.11 1020 10 16.0934 0 0
4:53 am 04:53 Clear 22 -5.6 18 -7.8 85 85 N 5 7 30.12 1020 10 16.0934 0 0
5:53 am 05:53 Clear 20 -6.7 17 -8.3 89 89 NNW 7 11 30.14 1021 10 16.0934 0 0
6:53 am 06:53 Clear 21 -6.1 17 -8.3 85 85 NNW 9 15 30.16 1021 10 16.0934 0 0
7:53 am 07:53 Sunny 30 -1.1 23 -5 75 75 NNW 5 7 30.18 1022 10 16.0934 0 0
8:53 am 08:53 Sunny 40 4.4 27 -2.8 60 60 VRB 6 9 30.16 1021 10 16.0934 0 0
9:53 am 09:53 Sunny 51 10.6 25 -3.9 36 36 NW 9 15 30.15 1021 10 16.0934 0 0
10:53 am 10:53 Sunny 58 14.4 23 -5 26 26 WNW 12 19 30.13 1020 10 16.0934 0 0
11:53 am 11:53 Sunny 63 17.2 24 -4.4 23 23 W 10 17 30.11 1020 10 16.0934 0 0
12:53 pm 12:53 Sunny 68 20 19 -7.2 15 15 NW 12 19 30.07 1018 10 16.0934 0 0
1:53 pm 13:53 Sunny 70 21.1 20 -6.7 15 15 WNW 9 15 30.06 1018 10 16.0934 0 0
2:53 pm 14:53 Sunny 70 21.1 18 -7.8 14 14 NNW 9 15 30.04 1017 10 16.0934 0 0
3:53 pm 15:53 Sunny 71 21.7 18 -7.8 13 13 Calm 30.04 1017 10 16.0934 0 0
4:53 pm 16:53 Sunny 70 21.1 18 -7.8 14 14 SSW 6 9 30.05 1018 10 16.0934 0 0
5:53 pm 17:53 Sunny 70 21.1 18 -7.8 14 14 NE 3 6 30.06 1018 10 16.0934 0 0
6:53 pm 18:53 Sunny 63 17.2 21 -6.1 20 20 S 5 7 30.07 1018 10 16.0934 0 0
7:53 pm 19:53 Clear 53 11.7 20 -6.7 27 27 ENE 5 7 30.09 1019 10 16.0934 0 0
8:53 pm 20:53 Clear 51 10.6 25 -3.9 36 36 ENE 12 19 30.09 1019 10 16.0934 0 0
9:53 pm 21:53 Clear 49 9.4 24 -4.4 38 38 VRB 5 7 30.08 1019 10 16.0934 0 0
10:53 pm 22:53 Clear 43 6.1 23 -5 45 45 Calm 30.09 1019 10 16.0934 0 0
11:53 pm 23:53 Clear 42 5.6 22 -5.6 45 45 E 6 9 30.08 1019 10 16.0934 0 0

Powered by AerisWeather